Volk, WI

7:33 PM CDT on September 19, 2017 (GMT -0500)
Volk

Weather History for KVOK - April, 2013

Change the Weather History Date:

Monday, April 1, 2013

  Actual Average Record
Temperature  
Mean Temperature 24 °F -  
Max Temperature 33 °F 48 °F 77 °F (2015)
Min Temperature 16 °F 32 °F 16 °F (2013)
Degree Days  
Heating Degree Days 40    
Moisture  
Dew Point 12 °F    
Average Humidity 56    
Maximum Humidity 77    
Minimum Humidity 41    
Precipitation  
Precipitation 0.00 in - - ()
Sea Level Pressure  
Sea Level Pressure 30.14 in    
Wind  
Wind Speed 12 mph (WNW)    
Max Wind Speed 21 mph    
Max Gust Speed 26 mph    
Visibility 10 miles    
Events      
Averages and records for this station are not official NWS values.
T = Trace of Precipitation, MM = Missing Value Source: NWS Daily Summary

Daily Weather History Graph

Daily Weather History Graph

Search for Another Location

Airport or City:

Trip Planner

Search our weather history database for the weather conditions in past years. The results will help you decide how hot, cold, wet, or windy it might be!

Date:

Astronomy

Apr. 01, 2013 Rise Set
Actual Time 6:42 AM CDT 7:28 PM CDT
Civil Twilight 6:12 AM CDT 7:57 PM CDT
Nautical Twilight 5:38 AM CDT 8:32 PM CDT
Astronomical Twilight 5:02 AM CDT 9:08 PM CDT
Moon 12:45 AM CDT (4/1) 10:19 AM CDT (4/1)
Length of Visible Light 13h 44m
Length of Day
12h 46m
Waning Gibbous, 67% of the Moon is Illuminated
Apr 1
Waning Gibbous
Apr 2
Last Quarter
Apr 10
New
Apr 18
First Quarter
Apr 25
Full

Hourly Weather History & Observations

Time (CDT) Temp. Windchill Dew Point Humidity Pressure Visibility Wind Dir Wind Speed Gust Speed Precip Events Conditions
12:55 AM 24.6 °F 16.7 °F 15.6 °F 69% 30.00 in 10.0 mi WNW 6.9 mph - N/A   Scattered Clouds
1:55 AM 26.1 °F 15.0 °F 12.7 °F 57% 30.02 in 10.0 mi NW 12.7 mph 19.6 mph N/A   Partly Cloudy
2:55 AM 23.7 °F 14.0 °F 12.4 °F 62% 30.04 in 10.0 mi NW 9.2 mph - N/A   Clear
3:55 AM 22.5 °F 11.7 °F 13.1 °F 67% 30.06 in 10.0 mi NW 10.4 mph - N/A   Clear
4:55 AM 22.5 °F 11.1 °F 11.8 °F 64% 30.07 in 10.0 mi NW 11.5 mph - N/A   Clear
5:55 AM 20.5 °F 10.0 °F 11.1 °F 67% 30.10 in 10.0 mi WNW 9.2 mph - N/A   Clear
6:55 AM 16.9 °F 6.4 °F 10.8 °F 77% 30.13 in 10.0 mi West 8.1 mph - N/A   Clear
7:55 AM 23.0 °F 12.4 °F 14.0 °F 68% 30.15 in 10.0 mi WNW 10.4 mph - N/A   Partly Cloudy
8:55 AM 24.8 °F 14.0 °F 14.0 °F 64% 30.17 in 10.0 mi WNW 11.5 mph - N/A   Partly Cloudy
9:55 AM 26.6 °F 14.3 °F 14.0 °F 59% 30.17 in 10.0 mi WNW 16.1 mph - N/A   Scattered Clouds
10:55 AM 28.4 °F 16.2 °F 14.0 °F 55% 30.18 in 10.0 mi West 17.3 mph 21.9 mph N/A   Scattered Clouds
11:55 AM 30.2 °F 17.4 °F 12.2 °F 47% 30.18 in 10.0 mi West 20.7 mph 26.5 mph N/A   Partly Cloudy
12:55 PM 32.0 °F 20.8 °F 14.0 °F 48% 30.18 in 10.0 mi West 17.3 mph 25.3 mph N/A   Partly Cloudy
1:55 PM 32.0 °F 22.5 °F 12.2 °F 44% 30.17 in 10.0 mi West 12.7 mph 24.2 mph N/A   Partly Cloudy
2:55 PM 33.8 °F 23.2 °F 12.2 °F 41% 30.17 in 10.0 mi WNW 17.3 mph 24.2 mph N/A   Partly Cloudy
3:55 PM 33.8 °F 22.8 °F 12.2 °F 41% 30.17 in 10.0 mi West 18.4 mph 25.3 mph N/A   Partly Cloudy
4:55 PM 33.8 °F 22.5 °F 12.2 °F 41% 30.17 in 10.0 mi West 19.6 mph - N/A   Partly Cloudy
5:55 PM 32.0 °F 20.8 °F 12.2 °F 44% 30.19 in 10.0 mi WNW 17.3 mph 25.3 mph N/A   Partly Cloudy
6:55 PM 30.2 °F 19.8 °F 10.4 °F 44% 30.19 in 10.0 mi WNW 13.8 mph 23.0 mph N/A   Partly Cloudy
7:55 PM 26.6 °F 16.8 °F 10.4 °F 51% 30.19 in 10.0 mi WNW 10.4 mph - N/A   Clear
8:55 PM 24.8 °F 16.1 °F 10.4 °F 54% 30.20 in 10.0 mi WNW 8.1 mph - N/A   Clear
9:55 PM 21.2 °F 10.9 °F 10.4 °F 63% 30.22 in 10.0 mi West 9.2 mph - N/A   Clear